Regional Weather Roundup
Issued by NWS

Home | Current Version | Previous Version | Graphics & Text | Print | Product List | Glossary On
Versions: 1 2 3 4 5 6 7 8 9 10 11 12 13 14 15 16 17 18 19 20 21 22 23 24 25 26 27 28 29 30 31 32 33 34 35 36 37 38 39 40 41 42 43 44 45 46 47 48 49 50
017
ASUS45 KSLC 212310
RWRUT

UTAH REGIONAL WEATHER ROUNDUP
NATIONAL WEATHER SERVICE SALT LAKE CITY UT
400 PM MST SAT JAN 21 2017

UTZ001>011-023>025-220000-

NORTHERN UTAH

CITY           SKY/WX    TMP DP  RH WIND       PRES   REMARKS
BRIGHAM CITY     N/A     33  32  94 S3        29.71R
HILL AFB       CLOUDY    32  26  77 S6        29.71R WCI  26
LOGAN          CLOUDY    35  30  82 CALM      29.68R
OGDEN          CLOUDY    33  26  75 S5        29.70R WCI  29
SALT LAKE CITY CLOUDY    35  31  85 SE6       29.72R WCI  30
TOOELE VALLEY  CLOUDY    36  30  80 E7        29.72R WCI  30
WENDOVER       MOSUNNY   37  19  48 W13       29.70R WCI  29
HEBER CITY     PTSUNNY   36  25  64 SW8       29.65R WCI  29
WEST JORDAN    CLOUDY    33  32  96 E7        29.72R WCI  27

$$

UTZ011>015-024>027-220000-

CENTRAL/NORTHEAST UTAH

CITY           SKY/WX    TMP DP  RH WIND       PRES   REMARKS
PROVO AIRPORT  CLOUDY    35  30  82 W5        29.73R WCI  31
MOAB/CANYONLAN SUNNY     40  36  86 W14       29.56R WCI  32
DELTA          PTSUNNY   32  30  93 MISG      29.74R
PRICE          MOSUNNY   37  22  54 NW6       29.58R WCI  32
RICHFIELD      PTSUNNY   34  28  80 NW1       29.76R HAZE
ROOSEVELT      CLOUDY    32  23  69 SE5       29.60R WCI  27
VERNAL         LGT SNOW  26  23  88 CALM      29.58R FOG

$$

UTZ013>016-019>022-027-220000-

SOUTHERN UTAH

CITY           SKY/WX    TMP DP  RH WIND       PRES   REMARKS
BRYCE CANYON   FLURRIES  28  18  66 N10       29.68R WCI  19
CEDAR CITY     MOSUNNY   35  21  56 W15       29.74R WCI  25
MILFORD        MOSUNNY   40  25  55 CALM      29.71R
ST GEORGE      MOCLDY    48  30  49 W10G20    29.80R
HANKSVILLE     PTSUNNY   45  21  39 MISG      29.63R
KANAB          MOSUNNY   39  27  60 W21G26    29.78R WCI  29
BLANDING       CLOUDY    36  31  84 W12       29.65R WCI  27

$$

REGIONAL REPORTS     COLORADO/ARIZONA

CITY           SKY/WX    TMP DP  RH WIND       PRES   REMARKS
CRAIG, CO      SNOW      28  25  88 SW6       29.52R VSB 1/2 WCI  22
GRAND JUNCTION MIX PCPN  35  34  96 N13       29.55R WCI  26
RIFLE, CO      LGT SNOW  34  31  88 W15       29.52R FOG     WCI  24
MONTROSE, CO   CLOUDY    33  31  92 SE6       29.55R WCI  28
CORTEZ, CO     LGT SNOW  33  30  88 W13       29.59R FOG     WCI  24
COLORADO CITY  FLURRIES  37  32  81 NW9       29.81R WCI  31
PAGE, AZ       CLOUDY    45  18  34 W13G21    29.70R
GRAND CANYON   PTSUNNY   32  27  81 W8        29.78R WCI  25
KINGMAN, AZ    SUNNY     49  26  41 SW17      29.85R
FLAGSTAFF, AZ  CLOUDY    29  21  72 W10G21    29.78R WCI  20

$$

REGIONAL REPORTS    NEVADA/IDAHO/WYOMING

CITY           SKY/WX    TMP DP  RH WIND       PRES   REMARKS
LAS VEGAS, NV  MOSUNNY   56  26  31 SW12      29.80R
ELY, NY        CLOUDY    33  18  53 SW10      29.74R WCI  25
ELKO, NV       CLOUDY    35  24  64 SW10      29.72R WCI  27
POCATELLO, ID  CLOUDY    33  28  81 SW18      29.66R WCI  22
BURLEY, ID     MOSUNNY   36  27  69 W12       29.66R WCI  28
FORT BRIDGER,  CLOUDY    27  27 100 W18       29.62R WCI  14
EVANSTON, WY   CLOUDY    25  20  81 W17       29.61R WCI  12
ROCK SPRINGS,  LGT SNOW  20  17  88 SW16      29.56R FOG     WCI   6

$$




USA.gov is the U.S. government's official web portal to all federal, state and local government web resources and services.